NOAA 16 DEB, 41364

Orbit data source: Space-Track

NOAA 16 DEB, 41364 is space debris in SSO originally from a launch on Thu, 21 Sep 2000 UTC launched from the Air Force Western Test Range (AFWTR). Debris objects in space refer to the collection of defunct objects orbiting the Earth. Examples of debris include non-operational satellites, rocket bodies, and fragments generated from explosions, collisions, or faulty payload assembly.

Loading next visibility...
Identifier
41364, 2000-055JH
Orbit
SSO
Country
Flag of USUS
Related business
Manufacturer
Unknown
Mission
Spacecraft
Bus & Motor
Unknown
Mass
Unknown
Launch date (UTC)
2000-09-21 (26 years ago)
Launch vehicle
Unknown
Launch site
Air Force Western Test Range (AFWTR)
Object type
Payload
Rocket body
Debris
Shape & HBR
Unknown shape, 0.1 m
Radar Cross Section
Small (<0.1 m²)

Expand to show TLE details & history
Last TLE update: 2 days ago

TLE from 2 days ago
0 NOAA 16 DEB
1 41364U 00055JH  26171.39132921  .00002866  00000-0  11059-2 0  9995
2 41364  98.6174 226.2940 0015905 126.5934 233.6715 14.30925203536325
Epoch: 2026-06-20T09:23Z
TLE epoch observation values (Epoch: 2026-06-20T09:23:30.843Z)
Latitude
-0.00001°
Longitude
176.80887°
Altitude
798.338 km
Speed
7.451 km/s
True Right ascension
15h 05m 10s
True Declination
0° 00' 00"
Sunlit
Object was in full shadow at epoch
Visualization orbit readout
Latitude
Unknown
Longitude
Unknown
Altitude
Unknown
Speed
Unknown
Apparent Right ascension
Unknown
Apparent Declination
Unknown
Sunlit
N/A
Visualization observer readout
Local Sidereal Time
23:18:39
Azimuth
Unknown
Elevation
Unknown
Doppler factor
Unknown
Orbital elements
Apogee altitude
797.174 km
Perigee altitude
774.385 km
Semi-major axis
7,163.916 km
Eccentricity
0.00159
Inclination
98.6174°
RAAN
226.294°
Arg. of periapsis
126.5934°
True anomaly
233.52484°
Mean anomaly
233.6715°
Eccentric anomaly
233.59815°
Mean motion
3.57946 °/min
Orbital period
100.57 mins
BSTAR
0.0011059
Loading maneuver chart data...
Computing Atmospheric mass density...
Loading historical data...
Loading historical data...
Loading historical data...
Loading historical data...
Loading historical data...
Loading historical data...
Loading historical data...

Documentation

Showing up to 5 results
|